TimeEST,TemperatureF,Dew PointF,Humidity,Sea Level PressureIn,VisibilityMPH,Wind Direction,Wind SpeedMPH,Gust SpeedMPH,PrecipitationIn,Events,Conditions,WindDirDegrees,DateUTC
12:15 AM,30.2,30.2,100,29.91,5.0,SW,3.5,-,N/A,,Overcast,230,2013-02-14 05:15:00
12:35 AM,30.2,30.2,100,29.90,5.0,SW,3.5,-,N/A,,Overcast,230,2013-02-14 05:35:00
12:55 AM,32.5,32.2,99,29.90,7.0,SSW,3.5,-,N/A,,Scattered Clouds,200,2013-02-14 05:55:00
1:15 AM,30.7,30.2,98,29.91,7.0,SW,3.5,-,N/A,,Clear,220,2013-02-14 06:15:00
1:35 AM,30.2,30.2,100,29.91,5.0,SW,3.5,-,N/A,,Clear,220,2013-02-14 06:35:00
1:55 AM,30.2,30.2,100,29.91,7.0,SW,3.5,-,N/A,,Clear,220,2013-02-14 06:55:00
2:15 AM,29.1,29.1,100,29.91,7.0,Calm,Calm,-,N/A,,Clear,0,2013-02-14 07:15:00
2:35 AM,30.2,30.2,100,29.91,10.0,SW,5.8,-,N/A,,Clear,220,2013-02-14 07:35:00
2:55 AM,32.4,32.2,99,29.91,10.0,SSW,4.6,-,N/A,,Clear,200,2013-02-14 07:55:00
3:15 AM,30.2,30.2,100,29.91,7.0,South,4.6,-,N/A,,Clear,190,2013-02-14 08:15:00
3:35 AM,29.3,29.1,99,29.91,7.0,Calm,Calm,-,N/A,,Clear,0,2013-02-14 08:35:00
3:55 AM,29.1,29.1,100,29.90,7.0,Calm,Calm,-,N/A,,Clear,0,2013-02-14 08:55:00
4:15 AM,30.2,30.2,100,29.90,7.0,Calm,Calm,-,N/A,,Clear,0,2013-02-14 09:15:00
4:35 AM,28.0,28.0,100,29.90,7.0,SW,3.5,-,N/A,,Clear,230,2013-02-14 09:35:00
5:15 AM,32.5,32.5,100,29.90,7.0,Calm,Calm,-,N/A,,Overcast,0,2013-02-14 10:15:00
5:35 AM,32.5,32.5,100,29.90,10.0,South,4.6,-,N/A,,Overcast,190,2013-02-14 10:35:00
5:55 AM,33.3,33.3,100,29.90,10.0,SSW,9.2,-,N/A,,Overcast,210,2013-02-14 10:55:00
6:15 AM,35.1,35.1,100,29.90,7.0,SW,16.1,19.6,N/A,,Overcast,230,2013-02-14 11:15:00
6:35 AM,35.1,35.1,100,29.89,7.0,SW,16.1,19.6,N/A,,Overcast,220,2013-02-14 11:35:00
6:55 AM,35.1,35.1,100,29.89,7.0,SW,10.4,-,N/A,,Overcast,220,2013-02-14 11:55:00
7:15 AM,35.1,35.1,100,29.90,7.0,SW,8.1,-,N/A,,Overcast,230,2013-02-14 12:15:00
7:35 AM,35.1,35.1,100,29.91,7.0,SW,10.4,-,N/A,,Overcast,230,2013-02-14 12:35:00
7:55 AM,35.1,35.1,100,29.91,7.0,SW,9.2,-,N/A,,Overcast,220,2013-02-14 12:55:00
8:15 AM,35.1,35.1,100,29.92,5.0,SSW,8.1,-,N/A,,Overcast,200,2013-02-14 13:15:00
8:35 AM,35.1,35.1,100,29.91,5.0,SSW,9.2,-,N/A,,Overcast,200,2013-02-14 13:35:00
8:55 AM,35.1,35.1,100,29.92,5.0,SSW,9.2,-,N/A,,Overcast,200,2013-02-14 13:55:00
9:15 AM,35.1,35.1,100,29.91,7.0,SSW,8.1,-,N/A,,Overcast,200,2013-02-14 14:15:00
9:35 AM,35.1,35.1,100,29.91,7.0,SSW,11.5,-,N/A,,Overcast,200,2013-02-14 14:35:00
9:55 AM,35.1,34.9,99,29.91,7.0,SSW,13.8,-,N/A,,Overcast,210,2013-02-14 14:55:00
10:15 AM,35.6,35.6,100,29.91,7.0,SW,15.0,18.4,N/A,,Overcast,220,2013-02-14 15:15:00
10:35 AM,37.6,37.2,99,29.91,10.0,SSW,12.7,17.3,N/A,,Overcast,210,2013-02-14 15:35:00
10:55 AM,37.6,36.7,97,29.90,10.0,SSW,13.8,-,N/A,,Overcast,210,2013-02-14 15:55:00
11:15 AM,37.6,36.5,96,29.90,10.0,SSW,13.8,17.3,N/A,,Overcast,200,2013-02-14 16:15:00
11:35 AM,38.1,36.5,94,29.89,10.0,South,13.8,-,N/A,,Overcast,190,2013-02-14 16:35:00
11:55 AM,38.8,36.7,92,29.89,10.0,SSW,16.1,-,N/A,,Overcast,200,2013-02-14 16:55:00
12:15 PM,40.1,36.7,88,29.88,10.0,SSW,16.1,-,N/A,,Overcast,210,2013-02-14 17:15:00
12:35 PM,41.7,37.0,83,29.87,10.0,South,12.7,-,N/A,,Mostly Cloudy,190,2013-02-14 17:35:00
12:55 PM,45.9,39.7,79,29.87,10.0,SSW,12.7,19.6,N/A,,Mostly Cloudy,210,2013-02-14 17:55:00
1:15 PM,47.7,39.7,74,29.85,10.0,SW,17.3,-,N/A,,Scattered Clouds,220,2013-02-14 18:15:00
1:35 PM,47.7,39.4,73,29.84,10.0,SW,16.1,23.0,N/A,,Scattered Clouds,230,2013-02-14 18:35:00
1:55 PM,48.0,39.6,73,29.83,10.0,SW,13.8,-,N/A,,Scattered Clouds,220,2013-02-14 18:55:00
2:15 PM,50.2,39.7,67,29.82,10.0,SW,21.9,25.3,N/A,,Clear,230,2013-02-14 19:15:00
2:35 PM,52.7,40.8,64,29.82,10.0,SW,18.4,26.5,N/A,,Clear,230,2013-02-14 19:35:00
2:55 PM,52.7,40.5,63,29.82,10.0,SW,17.3,28.8,N/A,,Clear,220,2013-02-14 19:55:00
3:15 PM,52.7,39.6,61,29.82,10.0,SW,17.3,25.3,N/A,,Clear,230,2013-02-14 20:15:00
3:35 PM,52.7,39.2,60,29.82,10.0,SW,16.1,26.5,N/A,,Scattered Clouds,230,2013-02-14 20:35:00
3:55 PM,52.7,39.4,61,29.83,10.0,WSW,16.1,-,N/A,,Mostly Cloudy,240,2013-02-14 20:55:00
4:15 PM,52.7,38.5,58,29.84,10.0,SW,18.4,27.6,N/A,,Mostly Cloudy,230,2013-02-14 21:15:00
4:35 PM,52.7,39.6,61,29.85,10.0,WSW,12.7,25.3,N/A,,Mostly Cloudy,250,2013-02-14 21:35:00
4:55 PM,52.7,39.6,61,29.85,10.0,WSW,11.5,20.7,N/A,,Mostly Cloudy,250,2013-02-14 21:55:00
5:15 PM,52.7,39.6,61,29.86,10.0,WSW,13.8,19.6,N/A,,Overcast,250,2013-02-14 22:15:00
5:35 PM,50.2,37.9,63,29.87,10.0,West,15.0,25.3,N/A,,Mostly Cloudy,270,2013-02-14 22:35:00
5:55 PM,48.4,37.8,67,29.88,10.0,West,9.2,17.3,N/A,,Scattered Clouds,270,2013-02-14 22:55:00
6:15 PM,47.7,37.0,67,29.89,10.0,West,12.7,17.3,N/A,,Clear,260,2013-02-14 23:15:00
6:35 PM,47.7,36.3,65,29.90,10.0,WSW,9.2,-,N/A,,Clear,250,2013-02-14 23:35:00
6:55 PM,47.7,36.9,66,29.91,10.0,WSW,8.1,-,N/A,,Clear,250,2013-02-14 23:55:00
7:15 PM,47.7,36.5,65,29.92,10.0,WSW,5.8,-,N/A,,Scattered Clouds,250,2013-02-15 00:15:00
7:35 PM,45.1,34.9,67,29.93,10.0,West,6.9,-,N/A,,Scattered Clouds,260,2013-02-15 00:35:00
7:55 PM,45.0,36.5,72,29.95,10.0,WNW,12.7,16.1,N/A,,Mostly Cloudy,300,2013-02-15 00:55:00
8:15 PM,44.8,36.3,72,29.95,10.0,WNW,6.9,-,N/A,,Scattered Clouds,300,2013-02-15 01:15:00
8:35 PM,42.3,36.0,78,29.96,10.0,NW,8.1,-,N/A,,Clear,320,2013-02-15 01:35:00
8:55 PM,40.6,35.4,82,29.97,10.0,NW,12.7,18.4,N/A,,Scattered Clouds,320,2013-02-15 01:55:00
9:15 PM,40.1,34.7,81,29.98,10.0,NW,10.4,16.1,N/A,,Clear,320,2013-02-15 02:15:00
9:35 PM,38.8,33.6,82,29.99,10.0,NW,5.8,-,N/A,,Clear,310,2013-02-15 02:35:00
9:55 PM,38.3,33.3,82,29.99,10.0,WNW,3.5,-,N/A,,Clear,290,2013-02-15 02:55:00
10:15 PM,37.6,32.5,82,30.00,10.0,WNW,5.8,-,N/A,,Clear,290,2013-02-15 03:15:00
10:35 PM,37.6,32.5,82,30.00,10.0,Calm,Calm,-,N/A,,Clear,0,2013-02-15 03:35:00
10:55 PM,37.6,32.7,83,30.00,10.0,Calm,Calm,-,N/A,,Scattered Clouds,0,2013-02-15 03:55:00
11:15 PM,35.6,32.2,87,30.00,10.0,SW,3.5,-,N/A,,Overcast,220,2013-02-15 04:15:00
11:35 PM,35.1,32.0,89,30.01,10.0,SW,4.6,-,N/A,,Mostly Cloudy,220,2013-02-15 04:35:00
11:55 PM,32.5,31.3,95,30.01,10.0,West,3.5,-,N/A,,Clear,260,2013-02-15 04:55:00